Theta_e
311 322 327 326 316 315 319 317 321 322 320 318 318 318 318 319 320 322 339 341 342 343 339 336 334 334 336 336 335 335 334 333 332 330 332 332 332 331 334 334 321 322 330 338 331 334 338 334 316
312 321 327 320 316 311 309 317 322 320 319 319 319 318 317 319 323 324 339 341 341 341 337 333 332 333 336 336 333 332 332 335 334 330 332 340 335 333 337 334 322 335 339 339 337 334 335 328 315
320 325 322 314 314 312 311 316 317 318 318 318 318 316 317 331 341 341 342 342 341 339 336 332 331 331 333 336 333 331 332 334 333 331 330 333 336 335 339 334 327 337 339 340 337 336 328 320 317
324 323 319 315 316 316 316 317 317 314 316 315 315 313 317 338 340 341 342 342 342 341 336 332 330 329 329 329 330 330 331 332 333 332 332 333 334 336 340 332 331 335 339 338 338 333 321 317 318
322 319 313 315 317 316 314 316 314 313 313 313 312 313 314 331 331 341 341 342 343 342 340 335 329 328 327 327 327 327 327 328 331 332 332 332 334 334 337 333 331 336 337 338 334 326 318 317 319
317 315 310 313 314 314 313 315 313 310 311 312 313 312 318 322 334 339 336 337 340 342 341 337 330 329 328 328 328 327 326 325 326 330 330 332 332 332 337 335 333 337 338 336 331 322 319 317 319
313 308 311 314 314 314 313 312 310 310 310 312 313 311 315 325 328 335 334 335 336 340 340 339 335 332 331 331 330 329 326 323 321 327 328 329 333 333 336 337 333 336 336 334 330 321 318 317 318
315 311 314 313 313 314 311 311 310 310 310 312 312 312 313 315 319 329 335 334 334 334 337 338 338 336 334 333 332 329 324 322 323 326 328 329 333 333 335 338 335 336 334 332 331 321 319 318 317
314 310 310 313 313 312 311 310 311 310 309 309 311 313 313 312 315 322 332 335 334 333 334 337 337 338 339 336 333 329 323 325 333 326 326 330 329 332 335 338 335 334 333 330 328 321 319 317 317
310 307 309 310 311 311 310 309 308 308 308 307 309 311 311 311 314 317 318 326 333 334 333 333 334 336 339 339 334 330 324 324 329 324 328 330 329 332 333 338 335 333 333 326 323 320 317 316 316
309 309 309 310 310 306 306 306 307 306 305 308 308 308 309 311 312 313 315 315 319 331 332 332 331 331 333 338 336 330 326 325 324 329 328 329 331 333 334 338 335 332 333 329 325 317 315 315 316
305 306 306 305 305 304 304 304 305 305 305 306 306 307 307 307 309 311 313 314 314 321 329 330 331 330 331 332 335 333 331 330 327 323 329 329 332 334 334 338 336 335 335 328 327 318 316 315 316
303 303 304 305 304 304 304 304 303 304 305 305 305 305 306 306 307 308 310 311 312 314 324 327 327 331 331 331 333 334 333 331 330 332 326 323 329 331 334 337 336 336 337 327 330 328 320 318 317
303 304 304 304 304 303 303 303 303 303 304 304 304 303 303 304 304 304 307 310 311 311 314 328 327 328 331 332 332 332 331 330 329 331 329 327 326 327 328 333 335 336 335 328 332 332 327 321 318
304 302 301 301 303 303 304 302 302 304 304 303 304 305 305 305 305 305 304 308 309 310 310 315 327 328 331 331 331 329 327 330 328 327 328 328 326 326 326 326 330 334 334 332 332 332 330 325 321
301 301 301 301 302 304 303 303 302 305 304 304 304 305 305 305 305 306 305 305 307 308 309 311 322 324 328 329 329 328 330 330 330 329 328 327 327 327 327 326 326 329 333 333 332 330 329 326 323
297 300 301 302 303 304 304 303 304 305 305 304 305 305 305 305 306 306 306 305 305 307 308 310 320 324 325 327 328 328 329 330 328 329 328 328 327 327 326 327 327 328 330 333 331 324 328 327 324
301 301 302 302 303 304 304 304 304 305 305 305 305 305 305 305 306 305 306 305 306 305 307 310 320 324 324 327 327 326 325 327 327 326 325 325 325 325 328 327 328 329 326 328 327 323 324 326 325
300 302 301 302 303 304 304 304 305 306 306 306 306 306 305 304 306 306 306 306 307 307 307 308 321 323 325 325 326 325 325 324 324 325 326 325 325 326 327 327 327 327 328 324 324 322 322 323 322
302 302 302 302 304 305 307 308 307 307 306 306 307 305 306 305 305 306 306 306 306 307 307 308 321 321 324 325 325 326 325 325 325 325 325 326 326 326 326 326 325 324 325 324 320 319 319 320 322
299 300 302 303 306 307 309 309 305 303 304 308 309 306 306 306 306 306 305 306 307 307 308 312 320 320 321 326 326 325 324 323 324 325 326 326 326 327 326 326 326 326 326 325 325 322 321 320 321
304 303 304 306 309 312 310 311 305 304 308 310 311 309 306 306 307 307 307 309 311 309 308 315 320 320 321 324 326 324 323 322 323 324 324 325 326 326 327 327 327 325 326 325 326 326 324 326 324
306 306 307 309 311 311 308 309 304 306 312 311 311 310 310 311 312 313 314 315 314 313 317 320 320 322 322 323 324 323 323 323 323 324 324 324 325 324 326 326 327 327 327 327 326 326 326 325 325
306 307 309 310 309 305 306 307 307 312 312 312 312 311 310 312 313 313 314 316 318 317 317 318 319 321 322 323 323 323 324 324 324 323 325 324 324 324 324 325 326 327 326 326 327 326 325 323 326
307 311 306 304 301 307 310 307 308 310 309 312 312 311 311 311 311 313 313 315 316 318 319 319 320 321 321 321 321 322 323 322 323 323 324 325 324 326 325 324 325 326 326 325 328 328 326 324 326
311 314 316 313 307 310 310 308 313 308 307 310 310 309 308 308 309 310 311 312 314 315 317 318 319 321 321 321 321 321 321 322 321 325 324 324 324 325 326 325 326 326 325 325 324 325 324 325 326
313 314 314 315 311 314 309 314 313 309 307 308 309 308 306 306 306 306 309 311 312 313 314 315 317 318 319 319 319 320 320 320 322 322 323 322 323 323 324 324 324 324 326 325 325 326 324 322 324
311 311 310 312 310 311 310 313 315 310 307 307 307 306 304 305 305 305 305 307 308 309 310 311 312 313 313 311 312 314 316 317 317 316 317 321 321 321 322 322 322 322 324 324 324 325 325 325 323
310 310 311 310 310 315 316 312 311 309 308 307 306 303 301 303 305 305 305 305 305 305 305 305 306 307 307 305 304 306 306 308 311 310 307 307 310 311 312 313 318 321 322 321 322 321 321 324 324
310 311 307 307 309 307 311 310 310 310 308 305 303 303 301 302 305 305 306 306 307 307 308 308 306 304 303 305 307 306 305 304 304 308 309 303 304 304 305 307 310 311 313 316 319 321 321 323 321
Wind_Speed
10 12 12 7 4 4 3 6 1 1 2 1 10 5 6 9 4 5 9 0 1 10 15 19 21 20 19 19 19 18 16 15 13 12 12 12 11 11 10 9 10 13 15 14 14 14 13 10 11
13 15 9 4 4 3 5 3 3 2 5 14 9 4 2 5 10 12 7 5 5 8 15 18 20 19 19 18 19 18 16 16 14 12 12 12 12 12 12 11 12 12 13 15 12 13 11 10 12
15 15 5 4 3 5 4 1 1 5 11 4 5 6 6 5 8 7 6 9 6 11 14 17 19 19 18 18 18 17 16 15 14 13 12 12 13 13 13 12 13 14 14 17 14 10 11 12 12
10 6 5 4 5 5 3 1 5 8 6 7 9 5 6 3 12 9 9 9 6 10 12 15 17 18 17 16 16 16 16 16 15 14 14 13 13 13 14 15 16 15 16 15 12 8 14 13 12
9 5 4 3 3 4 4 4 5 3 3 6 8 7 9 8 15 11 5 7 9 9 11 14 16 17 17 17 16 16 16 17 17 17 16 15 14 14 15 17 17 17 17 14 10 11 15 14 12
5 4 3 2 3 4 6 5 2 3 4 4 8 8 2 14 11 3 3 7 8 8 10 13 17 18 18 17 16 16 16 17 17 17 17 16 15 15 16 18 18 18 17 14 11 15 16 14 12
6 3 3 2 2 4 3 6 3 1 5 2 11 3 6 9 12 4 3 7 10 10 11 12 18 19 18 17 16 16 16 16 17 17 17 17 16 17 18 18 19 19 17 15 14 18 17 15 12
5 4 3 2 2 4 5 7 3 7 3 9 8 3 5 18 15 9 5 6 11 13 14 13 16 19 19 18 17 16 16 15 16 17 19 18 18 17 19 18 19 18 17 16 18 20 19 16 14
6 4 2 2 4 4 3 7 5 9 11 7 6 9 13 17 15 8 4 8 11 13 15 16 17 19 19 19 18 17 15 14 14 17 20 19 19 18 19 19 20 19 18 18 20 22 20 18 16
4 3 7 3 2 3 9 3 11 6 10 12 24 14 18 18 13 12 10 5 8 13 15 17 17 18 20 19 19 17 15 13 12 13 16 19 19 19 20 20 21 20 19 14 23 23 21 21 19
3 4 4 3 5 5 7 9 5 4 4 8 8 22 27 26 20 15 12 10 9 10 14 16 18 20 21 22 20 17 14 12 12 13 16 17 19 20 22 22 23 23 21 18 23 24 22 22 21
1 1 1 4 4 8 7 11 8 15 13 25 28 23 27 31 31 26 20 14 12 11 14 16 19 21 22 23 20 19 15 13 14 14 14 17 19 21 24 25 25 24 23 21 25 25 23 23 22
2 4 8 10 20 17 16 16 13 14 34 30 29 30 22 24 30 33 30 25 18 14 12 17 17 19 22 23 23 19 16 14 14 14 14 14 15 19 22 26 28 27 24 24 25 25 25 24 23
3 7 13 12 15 15 10 11 5 5 17 22 29 34 32 31 30 34 37 33 26 20 15 17 20 21 21 20 24 15 14 13 13 13 14 11 11 13 18 25 29 29 27 24 28 27 27 25 24
3 5 7 4 3 4 11 5 10 22 18 25 25 30 29 27 24 27 34 38 33 25 20 16 20 19 20 21 22 22 16 20 17 18 17 18 19 19 22 23 28 28 30 28 30 30 30 26 25
4 4 5 4 7 5 5 11 2 9 17 32 31 30 32 32 29 25 25 33 36 30 23 19 17 19 21 22 22 21 22 22 21 24 25 25 25 24 25 28 29 30 33 33 30 32 31 28 27
7 2 2 8 3 2 1 15 2 17 21 25 34 36 37 40 39 29 22 25 30 30 26 21 18 18 20 20 20 21 24 25 24 28 28 27 27 28 28 29 30 27 27 37 31 31 28 29 29
2 3 4 6 5 1 7 25 23 36 25 31 37 39 36 37 37 28 20 19 22 26 27 24 19 16 16 18 19 20 19 20 25 26 26 24 24 25 24 26 30 31 29 31 32 37 29 31 30
2 1 6 8 10 8 11 20 22 32 26 27 32 35 33 35 36 31 25 21 21 25 26 26 20 17 17 19 22 24 23 24 24 23 21 21 21 24 21 25 28 30 28 26 26 28 26 30 35
2 2 7 8 7 5 12 20 20 19 15 19 23 30 25 26 28 25 24 24 23 23 25 28 25 19 19 19 18 19 18 18 20 21 22 21 21 24 25 26 29 31 30 29 30 37 37 33 35
3 4 5 7 8 12 14 12 4 6 10 17 16 20 15 19 21 19 18 22 20 22 24 30 26 21 19 18 19 19 19 20 21 20 21 20 21 24 29 30 35 32 31 37 40 38 40 40 37
4 7 10 9 7 4 2 6 5 6 9 14 22 27 15 14 17 19 17 19 21 22 27 28 25 23 20 19 19 20 22 24 23 22 21 20 20 23 27 31 34 42 39 38 40 43 44 43 44
8 2 5 9 10 5 3 3 6 8 14 15 21 20 18 16 16 6 3 3 9 17 19 20 19 19 18 18 18 20 22 23 25 25 25 26 24 23 26 32 37 37 40 44 43 40 43 42 43
6 5 5 2 2 2 4 4 4 7 12 14 9 12 15 14 8 12 11 9 11 13 16 15 16 14 14 11 12 14 17 21 24 25 25 27 29 32 31 31 33 39 39 38 45 46 42 44 46
1 4 4 5 3 4 4 2 5 10 11 13 11 8 9 10 14 8 8 8 8 9 10 10 6 4 5 7 10 11 14 17 17 19 22 19 19 22 23 27 33 35 39 37 39 40 35 42 43
3 2 1 4 3 5 0 3 3 6 12 14 10 11 14 14 10 12 11 10 8 8 6 9 9 7 4 2 4 6 11 14 17 16 15 17 15 14 22 28 33 30 30 32 31 34 37 38 39
0 2 1 4 1 4 2 4 3 10 11 14 13 13 15 15 16 16 14 13 14 10 11 9 11 9 7 6 2 2 2 4 3 2 4 4 6 8 8 8 10 11 24 27 27 36 43 39 36
4 2 2 1 4 5 4 2 5 11 9 9 10 13 16 15 17 18 19 17 18 17 16 15 15 15 12 12 11 10 8 6 7 9 10 9 9 9 9 10 10 11 7 7 14 19 35 39 40
2 0 1 0 3 2 4 3 2 6 5 7 8 10 10 13 17 17 18 19 19 20 19 20 18 18 18 16 15 15 14 14 15 15 16 16 15 17 19 16 13 13 14 15 15 12 14 20 28
1 3 3 3 3 2 1 4 3 5 5 3 3 5 8 13 19 21 22 20 21 21 20 18 15 18 15 13 12 8 10 11 12 15 16 17 14 12 10 12 13 13 14 14 16 18 16 20 23
Wind_Direction
169 160 143 126 69 61 264 252 221 171 164 31 313 266 241 269 212 223 339 341 191 186 195 187 187 183 182 188 192 192 191 189 188 191 189 190 190 187 177 167 156 146 142 136 138 145 150 130 131
152 150 131 96 90 101 258 281 214 281 319 322 311 336 241 264 250 264 276 217 190 188 185 189 188 185 183 190 194 196 197 196 193 190 191 182 186 185 180 176 167 158 152 152 153 161 156 143 134
144 147 124 99 122 193 225 224 342 321 323 338 342 332 311 289 310 279 270 225 202 178 188 191 192 191 189 192 197 199 200 201 200 196 195 193 190 187 186 185 175 175 172 166 172 176 174 157 144
139 131 71 97 192 260 234 172 342 346 20 16 340 319 313 350 325 296 292 235 211 173 186 198 200 195 197 200 200 202 205 207 204 200 200 196 197 195 193 192 181 183 179 180 189 186 172 161 151
122 95 72 89 233 268 254 261 312 344 350 341 4 315 309 340 337 296 325 226 194 184 193 204 203 202 200 201 205 209 211 213 211 208 209 205 200 204 201 195 190 189 186 187 200 194 176 167 157
83 86 76 213 236 266 290 277 302 31 357 346 5 317 318 354 326 358 200 257 223 216 214 212 207 205 205 205 210 215 217 219 219 220 217 212 208 207 207 201 197 195 193 193 196 191 182 177 169
102 83 146 161 252 299 261 345 63 359 332 337 343 278 294 358 8 19 220 231 247 240 231 233 217 210 210 212 217 221 226 226 223 220 222 217 214 211 211 208 202 201 206 202 197 189 188 188 183
101 88 125 217 188 261 3 357 11 9 303 323 346 325 336 345 356 355 246 233 240 240 239 234 227 219 216 217 221 227 225 222 221 219 216 215 217 215 214 212 207 210 218 211 200 193 193 197 195
112 71 169 235 159 264 359 8 312 315 289 313 316 296 306 322 331 330 259 236 235 242 237 234 229 227 227 223 224 228 228 227 227 223 218 218 217 218 215 216 212 214 223 221 202 197 198 199 200
89 125 204 207 202 259 301 282 306 308 296 295 298 281 279 290 304 322 339 321 243 234 239 238 237 237 231 230 229 229 230 233 235 219 217 219 215 216 218 214 218 223 226 225 197 200 201 202 203
140 176 182 227 272 328 289 297 291 262 272 288 294 303 298 293 290 293 300 318 308 253 237 237 238 239 240 237 226 224 223 227 238 232 222 217 219 217 216 215 215 224 230 238 200 201 204 205 206
83 326 24 299 306 318 299 298 274 263 269 286 286 287 289 288 285 283 281 284 298 271 243 236 238 240 239 239 236 224 222 241 242 238 232 228 225 223 217 214 219 225 235 237 209 205 206 205 208
35 359 322 295 295 291 285 267 269 266 279 283 282 281 277 281 283 279 276 276 279 285 255 242 236 237 239 239 234 219 250 241 243 232 235 229 236 235 231 225 220 228 238 230 216 216 214 209 210
322 297 291 290 283 281 274 275 257 249 274 267 276 279 283 284 285 277 270 269 268 272 272 238 238 234 233 239 232 231 250 242 237 238 232 216 234 245 244 236 233 234 236 228 219 223 221 218 215
332 339 331 344 337 285 321 249 224 276 280 274 277 282 280 277 283 275 268 265 266 266 270 263 235 231 228 224 232 239 237 232 240 239 238 250 258 267 260 253 250 248 247 230 223 226 225 223 224
43 50 2 293 353 342 63 282 259 295 278 279 282 278 280 274 277 278 265 258 259 262 262 260 250 235 224 227 228 236 232 240 244 242 249 252 261 268 271 254 247 245 247 231 222 232 229 226 228
17 334 302 311 16 310 226 283 120 313 295 284 284 281 276 276 273 265 266 253 252 252 253 251 251 239 225 228 230 231 236 238 240 254 261 265 265 267 270 256 245 239 241 230 220 228 238 230 232
287 322 280 251 292 260 269 269 289 286 285 278 280 279 272 272 268 259 267 257 253 242 241 239 244 228 220 222 224 230 231 231 235 246 258 263 275 264 271 246 239 233 240 237 245 219 233 232 236
150 237 252 258 261 298 249 269 286 292 293 275 275 278 267 262 272 264 256 257 263 244 227 227 228 223 214 217 223 228 235 249 254 256 248 255 267 256 261 244 240 238 242 243 226 218 236 237 237
191 286 277 289 271 246 284 286 282 287 270 273 297 284 281 272 273 271 254 264 255 248 221 218 217 225 220 226 240 244 259 265 262 255 253 255 259 257 257 246 242 248 249 235 223 224 224 239 249
223 202 242 233 316 265 289 286 266 288 269 323 320 347 312 284 282 272 264 268 260 225 213 207 211 223 228 229 232 241 255 260 260 257 260 267 265 262 255 251 250 251 249 244 239 238 232 232 230
300 217 247 272 322 303 54 291 274 297 319 342 1 359 334 313 290 282 277 263 248 217 199 197 203 219 227 230 230 242 253 260 261 262 266 265 261 267 262 257 258 258 258 249 249 248 242 240 238
241 180 237 270 264 301 207 262 272 314 346 348 346 352 349 25 7 29 95 123 171 188 184 195 203 212 221 229 239 247 254 257 260 269 266 263 259 266 267 260 259 256 261 256 250 248 243 246 242
291 314 302 259 236 268 216 181 290 358 333 327 342 342 354 27 9 22 112 141 100 156 177 190 197 201 217 226 238 251 260 263 267 271 274 270 268 274 274 268 264 256 268 262 268 244 239 246 248
174 294 326 353 5 239 178 206 267 359 339 331 349 351 2 33 38 37 47 96 114 106 128 162 150 173 197 224 247 262 270 273 280 273 267 270 280 278 272 276 272 267 262 264 255 242 239 243 245
238 293 339 293 296 292 94 264 294 12 350 351 20 23 40 53 59 52 62 77 85 113 127 133 133 156 172 231 293 283 290 284 269 258 257 271 275 278 279 279 272 266 263 257 264 236 234 241 246
176 285 318 281 284 277 244 254 194 6 352 356 26 30 40 47 60 68 73 75 84 86 107 114 105 105 103 104 181 254 309 10 123 195 219 225 267 286 289 290 282 292 259 252 263 260 234 236 243
202 257 45 338 349 313 296 312 292 335 338 341 38 37 33 43 55 62 72 77 83 83 90 88 87 84 78 71 64 50 37 5 27 21 3 339 337 313 309 297 288 274 300 293 268 268 252 236 244
165 300 359 238 164 276 311 309 286 315 338 329 37 46 43 43 51 57 64 69 74 78 77 76 75 72 59 51 45 34 19 11 13 11 9 351 342 338 337 336 327 287 290 281 284 296 290 272 255
197 161 128 117 280 252 265 279 336 5 15 57 40 72 76 70 64 61 59 54 59 59 60 58 58 53 48 38 34 5 0 2 5 348 344 345 347 345 333 320 320 311 307 295 278 277 276 267 269